This demonstration page uses our WeatherBlox Daily Observations layout. Learn more.

Hourly Observations for March 19, 2020

Temp ( °F °C ) Dew Point ( °F °C ) Humidity (%) Winds ( mph kmh ) Pressure ( in mb ) Visibility ( mi km ) Precip ( " mm )
12:15 am 00:15 Cloudy with Fog 48 9 48 8.7 98 98 E 13 20 29.84 1011 0.25 0.402335 0 0
12:35 am 00:35 Cloudy with Fog 48 9 48 8.7 98 98 ESE 10 17 29.83 1010 0.25 0.402335 0 0
12:55 am 00:55 Cloudy with Fog 48 9.1 48 8.8 98 98 E 12 19 29.81 1010 0.5 0.80467 0 0
1:15 am 01:15 Cloudy with Fog 48 9 48 8.7 98 98 E 12 19 29.8 1009 0.5 0.80467 0 0
1:35 am 01:35 Cloudy with Fog 48 9 48 8.7 98 98 ESE 13 20 29.8 1009 0.5 0.80467 0 0
1:55 am 01:55 Cloudy with Fog 48 9 47 8.6 97 97 E 10 17 29.78 1009 0.25 0.402335 0 0
2:15 am 02:15 Cloudy with Fog 48 8.9 47 8.6 98 98 E 10 17 29.77 1008 0.5 0.80467 0 0
2:35 am 02:35 Cloudy with Fog 48 9 47 8.6 97 97 E 13 20 29.76 1008 0.5 0.80467 0 0
2:55 am 02:55 Cloudy with Fog 48 9 48 8.7 98 98 E 15 24 29.75 1008 0.25 0.402335 0 0
3:15 am 03:15 Cloudy with Light Rain 48 9 48 8.7 98 98 ESE 15 24 29.74 1007 0.25 0.402335 0 0
3:35 am 03:35 Cloudy with Drizzle 48 9 47 8.6 97 97 E 12 19 29.73 1007 0.25 0.402335 0 0
3:55 am 03:55 Cloudy with Light Rain 48 9.1 48 8.8 98 98 ESE 10 17 29.72 1006 0.25 0.402335 0 0
4:15 am 04:15 Cloudy with Light Drizzle 49 9.2 48 8.9 98 98 E 8 13 29.71 1006 0.25 0.402335 0 0
4:35 am 04:35 Cloudy with Light Rain 48 9.1 48 8.8 98 98 E 6 9 29.69 1005 0.25 0.402335 0 0
4:55 am 04:55 Cloudy with Light Rain 48 9 48 8.7 98 98 E 8 13 29.69 1005 0.25 0.402335 0.02 0.508
5:15 am 05:15 Cloudy with Nearby Thunderstorms 48 9.1 48 8.8 98 98 E 8 13 29.68 1005 0.25 0.402335 0 0
5:35 am 05:35 Cloudy 48 9.1 48 8.8 98 98 NE 10 17 29.67 1005 0.25 0.402335 0.01 0.254
5:55 am 05:55 Cloudy with Nearby Thunderstorms 48 9 48 8.7 98 98 N 7 11 29.69 1005 0.5 0.80467 0.01 0.254
6:15 am 06:15 Cloudy with Light Rain 48 8.7 47 8.5 99 99 NNE 13 20 29.68 1005 0.75 1.207005 0 0
6:35 am 06:35 Cloudy with Mist and Fog 48 8.7 47 8.5 99 99 NNE 9 15 29.68 1005 0.75 1.207005 0 0
6:55 am 06:55 Cloudy with Mist and Fog 48 8.8 47 8.5 98 98 NE 13 20 29.69 1006 1 1.60934 0 0
7:15 am 07:15 Cloudy with Mist and Fog 47 8.6 47 8.4 99 99 NE 14 22 29.69 1005 0.75 1.207005 0 0
7:35 am 07:35 Cloudy with Mist and Fog 47 8.5 47 8.1 97 97 NE 12 19 29.69 1005 1 1.60934 0 0
7:55 am 07:55 Cloudy with Mist and Fog 47 8.5 47 8.1 97 97 ENE 13 20 29.68 1005 1 1.60934 0 0
8:15 am 08:15 Cloudy with Mist and Fog 47 8.5 47 8.2 98 98 NE 14 22 29.68 1005 1.25 2.011675 0 0
8:35 am 08:35 Cloudy with Mist and Fog 47 8.5 47 8.1 97 97 NE 10 17 29.67 1005 1 1.60934 0 0
8:55 am 08:55 Cloudy with Mist and Fog 47 8.5 47 8.2 98 98 NE 12 19 29.67 1005 1.25 2.011675 0 0
9:15 am 09:15 Cloudy with Mist and Fog 48 8.7 47 8.4 98 98 NE 12 19 29.66 1005 1 1.60934 0 0
9:35 am 09:35 Cloudy with Mist and Fog 48 9 48 8.7 98 98 ENE 13 20 29.67 1005 1 1.60934 0 0
9:55 am 09:55 Cloudy with Mist and Fog 49 9.3 48 9 98 98 ENE 13 20 29.66 1004 0.75 1.207005 0 0
10:15 am 10:15 Cloudy with Fog 49 9.7 49 9.4 98 98 ENE 13 20 29.66 1004 0.5 0.80467 0 0
10:35 am 10:35 Cloudy with Fog 50 10 49 9.7 98 98 NE 13 20 29.64 1004 0.5 0.80467 0 0
11:15 am 11:15 Cloudy with Fog 52 10.9 51 10.6 98 98 NE 14 22 29.62 1003 0.25 0.402335 0 0
11:35 am 11:35 Cloudy with Fog 52 11.1 51 10.8 98 98 NE 10 17 29.63 1003 0.25 0.402335 0 0
11:55 am 11:55 Cloudy with Fog 52 11.1 51 10.8 98 98 NE 10 17 29.64 1004 0.25 0.402335 0 0
12:15 pm 12:15 Cloudy with Fog 52 11 51 10.6 97 97 NNE 16 26 29.63 1004 0.25 0.402335 0 0
12:35 pm 12:35 Cloudy with Fog 51 10.5 50 10.2 98 98 NNE 17 28 29.62 1003 0.5 0.80467 0 0
12:55 pm 12:55 Cloudy with Mist and Fog 49 9.4 48 9.1 98 98 NE 21 33 29.64 1004 1 1.60934 0 0
1:15 pm 13:15 Cloudy with Mist and Fog 49 9.5 48 9.1 97 97 NE 20 31 29.65 1004 2.5 4.02335 0 0
1:35 pm 13:35 Cloudy with Mist and Fog 48 8.8 47 8.5 98 98 NE 23 37 29.65 1004 3 4.82802 0 0
1:55 pm 13:55 Cloudy with Nearby Thunderstorms 47 8.3 46 8 98 98 NNE 23 37 29.65 1004 2.5 4.02335 0 0
2:15 pm 14:15 Cloudy with Thunderstorms 46 7.8 46 7.5 98 98 NNE 24 39 29.63 1003 2 3.21868 0.02 0.508
2:35 pm 14:35 Cloudy with Rain 46 7.6 45 7.3 98 98 NNE 21 33 29.64 1004 1.25 2.011675 0.28 7.112
2:55 pm 14:55 Cloudy with Thunderstorms 46 7.6 45 7.3 98 98 NNE 16 26 29.63 1004 7 11.26538 0.28 7.112
3:15 pm 15:15 Cloudy 46 7.7 46 7.5 99 99 NNE 26 43 29.63 1003 10 16.0934 0 0
3:35 pm 15:35 Cloudy with Nearby Thunderstorms 46 7.9 46 7.5 97 97 NNE 25 41 29.63 1003 10 16.0934 0 0
3:55 pm 15:55 Cloudy with Nearby Thunderstorms 46 7.8 46 7.5 98 98 NNE 30 48 29.63 1003 10 16.0934 0 0
4:15 pm 16:15 Cloudy 46 7.6 45 7.3 98 98 NNE 33 54 29.64 1004 10 16.0934 0 0
4:35 pm 16:35 Cloudy 46 7.5 44 6.8 95 95 NNE 31 50 29.65 1004 10 16.0934 0 0
4:55 pm 16:55 Cloudy 45 7.2 43 6.2 93 93 NNE 29 46 29.7 1006 10 16.0934 0 0
5:15 pm 17:15 Cloudy 44 6.7 42 5.6 93 93 NNE 40 65 29.72 1007 7 11.26538 0 0
5:35 pm 17:35 Windy with Storms Likely 42 5.5 40 4.5 93 93 N 30 48 29.75 1008 3 4.82802 0 0
5:55 pm 17:55 Cloudy 39 4 37 3 93 93 N 36 57 29.79 1009 10 16.0934 0 0
6:15 pm 18:15 Cloudy 38 3.3 36 2 91 91 N 33 54 29.82 1010 10 16.0934 0 0
6:35 pm 18:35 Cloudy 36 2.4 34 1 91 91 N 35 56 29.88 1012 10 16.0934 0 0
6:55 pm 18:55 Cloudy with Light Rain 35 1.5 32 0.1 91 91 N 32 52 29.89 1012 10 16.0934 0 0
7:15 pm 19:15 Cloudy 34 1 32 0 93 93 N 31 50 29.93 1014 10 16.0934 0 0
7:35 pm 19:35 Cloudy 33 0.6 31 -0.5 92 92 N 31 50 29.96 1015 10 16.0934 0 0
7:55 pm 19:55 Cloudy 33 0.5 31 -0.7 92 92 N 31 50 29.99 1016 10 16.0934 0 0
8:15 pm 20:15 Cloudy 32 0 30 -1.3 91 91 N 31 50 30 1016 10 16.0934 0 0
8:35 pm 20:35 Cloudy 32 0 29 -1.5 90 90 N 30 48 30.02 1017 10 16.0934 0 0
8:55 pm 20:55 Cloudy 31 -0.5 29 -1.8 91 91 N 30 48 30.06 1018 7 11.26538 0 0
9:15 pm 21:15 Windy with Snow Likely 31 -0.8 28 -2.2 90 90 N 29 46 30.08 1019 7 11.26538 0 0
9:35 pm 21:35 Windy with Snow Likely 29 -1.5 27 -3 90 90 N 32 52 30.12 1020 4 6.43736 0 0
9:55 pm 21:55 Cloudy with Mist and Fog 29 -1.6 27 -3 90 90 N 24 39 30.14 1021 5 8.0467 0 0
10:15 pm 22:15 Windy with Snow Likely 28 -2.2 25 -3.7 90 90 N 30 48 30.18 1022 5 8.0467 0 0
10:35 pm 22:35 Windy with Snow Likely 28 -2.3 25 -3.9 89 89 N 36 57 30.2 1023 3 4.82802 0 0
10:55 pm 22:55 Windy with Snow Likely 28 -2.5 25 -3.9 90 90 N 30 48 30.22 1023 1.5 2.41401 0 0
11:15 pm 23:15 Windy with Snow Likely 28 -2.5 25 -4 90 90 N 31 50 30.25 1024 3 4.82802 0 0
11:35 pm 23:35 Windy with Snow Likely 27 -2.7 25 -4 91 91 N 28 44 30.26 1025 2 3.21868 0 0
11:55 pm 23:55 Windy with Snow Likely 27 -2.7 24 -4.5 88 88 N 25 41 30.28 1025 5 8.0467 0 0

Powered by AerisWeather